Location: Dudaurebi
(42.1181°N, 44.6379°E)
Time: 05:49:51
(UTC+00:00)

Daily predictions for brighter satellites

Satellite Brightness Start Highest point End
(mag) Time Altitude Azimuth Time Altitude Azimuth Time Altitude Azimuth
USA 290 3.3 00:05:18 37° NNW 00:05:18 37° NNW 00:07:33 10° N
DMSP B5D2-2 4.0 00:04:38 42° SSW 00:06:11 61° W 00:11:20 10° NNW
Meteor 2-20 Rocket 4.3 00:04:57 35° SSW 00:07:41 75° W 00:13:41 10° N
Cosmos 1655 Rocket 3.9 00:01:48 10° N 00:08:03 90° NW 00:13:50 12° S
NOSS 3-4 (A) 4.2 00:01:33 10° NNW 00:08:23 68° NE 00:16:26 10° SE
NOSS 3-4 (C) 4.2 00:02:06 10° NNW 00:08:57 67° NE 00:16:59 10° SE
Cosmos 2333 4.1 00:03:20 10° NNW 00:09:01 79° WSW 00:14:43 10° SSE
Meteor 2-4 Rocket 3.6 00:10:12 28° S 00:13:10 82° E 00:18:32 10° NNE
IDEFIX/ARIANE 42P 4.2 00:12:42 10° NNW 00:15:58 17° WNW 00:16:41 17° WNW
Cosmos 1066 Rocket 4.5 00:14:46 16° S 00:18:59 63° E 00:24:16 10° NNE
USA 234 3.5 00:13:03 10° ESE 00:19:31 70° NE 00:26:03 10° NW
Envisat 3.3 00:14:49 10° N 00:19:41 48° WNW 00:21:16 36° WSW
Aureole 1 Rocket 3.2 00:17:37 10° NNW 00:21:59 86° WSW 00:27:31 10° SSE
JB-3 4.0 00:20:55 23° SSE 00:23:02 84° ENE 00:26:39 10° N
ISS -3.8 00:23:17 62° SSW 00:23:41 71° SE 00:27:03 10° ENE
Meteor 1-27 Rocket 3.9 00:21:07 31° SSW 00:23:57 61° WNW 00:29:51 10° N
Iridium 4 Rocket 3.9 00:23:28 34° W 00:24:10 36° W 00:28:44 10° NNW
AQUA 4.4 00:25:28 10° NNE 00:30:03 53° E 00:34:37 10° S
Cosmos 2084 Rocket 3.3 00:26:08 10° NW 00:30:20 67° WSW 00:34:33 10° SSE
Cosmos 1461 2.5 00:29:32 44° SW 00:30:39 86° WNW 00:34:23 10° NNE
H-2A R/B 2.7 00:31:28 36° W 00:31:28 36° W 00:34:37 10° NNW
Cosmos 2297 Rocket 4.1 00:26:46 10° SSE 00:31:17 25° ESE 00:35:49 10° NE
ADEOS II 2.1 00:27:26 10° N 00:32:37 65° WNW 00:35:39 25° SSW
SL-16 R/B 3.2 00:27:24 10° SSE 00:33:30 58° ENE 00:39:38 10° N
Cosmos 990 Rocket 4.4 00:29:06 10° NW 00:33:47 37° WSW 00:36:04 25° SSW
Cosmos 1842 Rocket 3.4 00:31:59 24° S 00:34:33 85° W 00:38:53 10° N
CZ-3 R/B 3.9 00:11:19 15° WSW 00:37:25 48° SSW 00:46:35 10° ESE
ADEOS Rocket 4.5 00:31:23 10° N 00:37:48 31° WNW 00:41:54 20° WSW
Cosmos 1238 Rocket 3.5 00:39:50 23° WNW 00:39:50 23° WNW 00:41:50 10° NNW
ALOS 2.9 00:35:38 10° N 00:39:48 36° WNW 00:41:29 27° WSW
CZ-2D R/B 2.7 00:35:43 10° N 00:40:38 41° WNW 00:43:17 24° WSW
COSMOS 2428 3.8 00:35:54 10° NNW 00:41:25 47° ENE 00:46:53 10° SE
Cosmos 841 Rocket 3.4 00:38:30 20° SSW 00:42:04 85° WNW 00:47:16 10° NNE
Alouette 2 Rocket 3.4 00:39:01 10° NNW 00:42:42 45° W 00:44:25 25° SSW
Okean 3 Rocket 3.8 00:46:13 10° N 00:50:41 76° E 00:55:08 10° SSE
Sich 1 3.0 00:47:08 10° N 00:51:18 80° E 00:55:25 10° S
Cosmos 1898 Rocket 3.4 00:46:39 10° NNW 00:51:50 84° WSW 00:56:59 10° SSE
DELTA 2 R/B (1) 4.3 00:52:27 19° SW 00:56:00 42° SSE 01:01:11 10° E
Cosmos 1937 Rocket 3.6 00:51:18 10° NNW 00:56:31 79° ENE 01:01:39 10° SSE
Cosmos 2360 Rocket 3.1 00:52:23 10° NW 00:56:58 26° WSW 01:01:33 10° SSW
Cosmos 1758 3.8 00:53:23 10° N 00:56:58 54° E 01:00:30 10° SSE
Cosmos 2333 Rocket 3.8 00:54:42 10° WNW 00:57:05 14° W 00:57:05 14° W
Meteor 1-18 Rocket 4.1 00:52:21 10° SSW 00:57:55 77° W 01:03:30 10° N
EP 1 4.2 00:56:40 10° NW 00:59:18 68° SW 01:02:22 10° SSE
Cosmos 1805 Rocket 4.3 00:55:41 10° N 01:00:00 55° E 01:04:16 10° SSE
Cosmos 1553 Rocket 4.0 00:55:00 10° SSW 01:01:05 63° W 01:07:20 10° N
ATLAS 5 CENTAUR R/B 4.0 00:57:43 17° SW 01:02:05 82° NW 01:23:18 10° NE
Meteor 2-10 Rocket 3.5 00:59:48 10° NNW 01:04:53 64° W 01:10:08 10° S
In-Cosmos 22 4.1 00:59:57 10° S 01:05:13 88° W 01:10:36 10° N
Resurs 1-4 Rocket 3.5 01:05:16 10° NNW 01:09:12 22° WNW 01:12:17 13° WSW
H-2A R/B 1.8 01:06:29 10° N 01:10:29 72° WNW 01:14:24 10° SSW
Cosmos 2322 Rocket 3.6 01:08:25 10° WNW 01:12:01 18° W 01:15:03 12° SW
CZ-2C R/B 2.6 01:14:15 10° NNE 01:19:07 72° ESE 01:23:46 10° S
USA 276 0.9 01:21:10 10° NW 01:22:47 65° NNE 01:24:38 10° ESE
H-2A R/B 3.4 01:20:06 10° NNW 01:24:00 22° WNW 01:27:58 10° WSW
Cosmos 1340 Rocket 4.1 01:20:36 10° N 01:24:11 43° ENE 01:27:47 10° SSE
Cosmos 2219 Rocket 3.2 01:21:49 10° NW 01:26:15 24° WSW 01:30:42 10° SSW
Cosmos 2237 Rocket 3.5 01:21:08 10° NNW 01:26:37 46° ENE 01:32:02 10° SE
USA 267 4.4 01:21:07 10° NE 01:26:49 33° NNW 01:32:31 10° W
SL-14 R/B 4.1 01:29:05 10° SW 01:32:35 32° WNW 01:36:07 10° NNW
SL-08 RB Rocket 3.8 01:28:25 10° N 01:32:44 55° WNW 01:37:04 10° SSW
Cosmos 2315 Rocket 4.2 01:27:16 10° S 01:33:37 84° E 01:40:02 10° N
Cosmos 1745 Rocket 3.9 01:27:39 10° NNW 01:33:47 71° W 01:39:52 10° S
ARGOS 3.7 01:29:16 10° N 01:34:15 40° WNW 01:39:12 10° SW
RESURS DK-1 3.8 01:30:30 10° NNW 01:34:18 42° ENE 01:38:04 10° SE
USA 81 4.5 01:31:04 10° N 01:36:20 70° E 01:41:34 10° SSE
SL-4 R/B 3.1 01:33:56 10° W 01:36:50 21° SW 01:39:39 10° S
Cosmos 2227 Rocket 3.8 01:33:24 10° S 01:38:33 37° ESE 01:43:43 10° NE
BREEZE-M DEB (TANK) 4.5 01:21:48 10° W 01:40:11 54° NNW 01:44:20 10° ENE
Cosmos 1408 Rocket 3.7 01:36:31 10° NNW 01:40:39 48° W 01:44:44 10° SSW
Cosmos 1939 Rocket 2.9 01:37:55 10° NNE 01:41:33 72° ESE 01:45:12 10° S
Gbstr 26 Del rocket 3.8 01:40:28 10° W 01:43:28 23° SW 01:46:37 10° S
Cosmos 2322 4.0 01:41:12 10° NW 01:46:39 46° WSW 01:52:01 10° S
